Location: Schommer Observatory
(40.5200°N, 74.4500°W)
Time: 11:09:04
(UTC-05:00)

Tiangong 1 - Pass Details

Date: 12 October 2017
Orbit: 275 x 302 km, 42.8° (Epoch: 14 December)

Event Time Altitude Azimuth Distance (km) Brightness Sun altitude
Rises 19:29:58 0° 284° (WNW) 2,083 6.5 -13.7°
Reaches altitude 10° 19:32:00 10° 288° (WNW) 1,235 4.9 -14.1°
Maximum altitude 19:34:45 65° 11° (N) 350 0.7 -14.6°
Enters shadow 19:35:26 43° 75° (ENE) 454 0.9 -14.8°
